Zurück zum Katalog

KSLV-II R/B

AktivSSO
NORAD 66663·ROCKET BODY·🇰🇷 South Korea

Gestartet Nov 26, 2025 von Naro Space Center

Loading…

Nächste Überflüge (nächste 24 Stunden)

TLE

AktuellSource: Space-Track

Epoche: Sep 14, 2026, 13:25 UTC

1 66663U 25274P   26257.55952632  .00005791  00000-0  46535-3 0  9994
2 66663  97.7535 188.0398 0064761 102.3206 258.5277 14.98755717 43715

Verfolge KSLV-II R/B in Echtzeit mit AllMySat

Download on the App Store